Weather History for Avalon, CA

Change the Weather History Date:

Wednesday, January 9, 2013

  Actual Average Record
Temperature  
Mean Temperature 55 °F -  
Max Temperature 64 °F 58 °F 75 °F (2007)
Min Temperature 46 °F 49 °F 43 °F (2011)
Degree Days  
Heating Degree Days 10    
Growing Degree Days 5 (Base 50)    
Moisture  
Dew Point 41 °F    
Average Humidity 67    
Maximum Humidity 100    
Minimum Humidity 28    
Precipitation  
Precipitation 0.00 in - - ()
Sea Level Pressure  
Sea Level Pressure 30.06 in    
Wind  
Wind Speed 3 mph (SW)    
Max Wind Speed 8 mph    
Max Gust Speed -    
Visibility 7 miles    
Events Fog    
Averages and records for this station are not official NWS values.
T = Trace of Precipitation, MM = Missing Value Source: NWS Daily Summary

Daily Weather History Graph

Daily Weather History Graph

Search for Another Location

Airport:

Trip Planner

Search our weather history database for the weather conditions in past years. The results will help you decide how hot, cold, wet, or windy it might be!

Date:

Astronomy

Jan. 09, 2013 Rise Set
Actual Time 6:58 AM PST 5:03 PM PST
Civil Twilight 6:31 AM PST 5:31 PM PST
Nautical Twilight 6:00 AM PST 6:01 PM PST
Astronomical Twilight 5:30 AM PST 6:31 PM PST
Moon 4:42 AM PST (1/9) 3:10 PM PST (1/9)
Length of Visible Light 10h 59m
Length of Day
10h 05m
Waning Crescent, 6% of the Moon is Illuminated
Jan 9
Waning Crescent
Jan 11
New
Jan 18
First Quarter
Jan 26
Full
Feb 3
Last Quarter

Hourly Weather History & Observations

Time (PST) Temp. Windchill Dew Point Humidity Pressure Visibility Wind Dir Wind Speed Gust Speed Precip Events Conditions
12:51 AM 63.0 °F - 30.0 °F 29% 30.08 in 10.0 mi Calm Calm - N/A   Clear
1:51 AM 63.0 °F - 30.0 °F 29% 30.09 in 10.0 mi NW 3.5 mph - N/A   Clear
2:51 AM 62.1 °F - 28.9 °F 29% 30.08 in 10.0 mi NNW 4.6 mph - N/A   Clear
3:51 AM 62.1 °F - 28.0 °F 28% 30.07 in 10.0 mi Calm Calm - N/A   Clear
4:51 AM 62.1 °F - 28.9 °F 29% 30.07 in 10.0 mi Calm Calm - N/A   Clear
5:51 AM 62.1 °F - 28.9 °F 29% 30.08 in 10.0 mi Calm Calm - N/A   Clear
6:51 AM 60.1 °F - 30.0 °F 32% 30.08 in 10.0 mi Calm Calm - N/A   Clear
7:51 AM 62.1 °F - 30.0 °F 30% 30.09 in 10.0 mi Calm Calm - N/A   Clear
8:51 AM 63.0 °F - 33.1 °F 33% 30.09 in 10.0 mi Calm Calm - N/A   Clear
10:51 AM 64.0 °F - 36.0 °F 35% 30.10 in 10.0 mi SSW 4.6 mph - N/A   Clear
11:51 AM 63.0 °F - 46.9 °F 56% 30.07 in 10.0 mi SSW 3.5 mph - N/A   Clear
12:51 PM 62.1 °F - 48.9 °F 62% 30.05 in 10.0 mi West 5.8 mph - N/A   Clear
1:51 PM 63.0 °F - 36.0 °F 37% 30.03 in 10.0 mi SSE 4.6 mph - N/A   Clear
2:51 PM 59.0 °F - 46.9 °F 64% 30.04 in 10.0 mi SW 3.5 mph - N/A   Clear
3:31 PM 53.6 °F - 48.2 °F 82% 30.07 in 2.5 mi SSW 6.9 mph - N/A   Scattered Clouds
3:33 PM 51.8 °F - 48.2 °F 88% 30.07 in 0.8 mi SSW 8.1 mph - N/A   Mist
3:51 PM 51.1 °F - 48.9 °F 92% 30.04 in 0.5 mi South 4.6 mph - N/A Fog Fog
3:57 PM 51.8 °F - 48.2 °F 88% 30.06 in 2.0 mi SSW 5.8 mph - N/A   Mostly Cloudy
4:09 PM 50.0 °F - 48.2 °F 94% 30.06 in 0.2 mi SW 8.1 mph - N/A Fog Fog
5:51 PM 48.0 °F - 46.0 °F 93% 30.04 in 0.2 mi SW 6.9 mph - N/A Fog Fog
6:51 PM 48.0 °F - 46.9 °F 96% 30.04 in 0.2 mi SW 5.8 mph - N/A Fog Fog
7:41 PM 48.2 °F - 46.4 °F 93% 30.05 in 2.0 mi WSW 5.8 mph - N/A   Overcast
7:49 PM 48.2 °F - 46.4 °F 93% 30.06 in 4.0 mi WSW 6.9 mph - N/A   Overcast
7:51 PM 48.0 °F - 46.0 °F 93% 30.04 in 5.0 mi WSW 6.9 mph - N/A   Overcast
8:51 PM 46.9 °F - 46.9 °F 100% 30.01 in 8.0 mi SSW 4.6 mph - N/A   Overcast
9:28 PM 46.4 °F 45.2 °F 46.4 °F 100% 30.03 in 9.0 mi South 3.5 mph - N/A   Overcast
9:51 PM 46.9 °F - 46.0 °F 97% 30.03 in 10.0 mi SW 4.6 mph - N/A   Overcast
10:51 PM 48.0 °F - 45.0 °F 89% 30.02 in 10.0 mi West 5.8 mph - N/A   Overcast
11:51 PM 48.0 °F - 45.0 °F 89% 30.01 in 10.0 mi WSW 4.6 mph - N/A   Overcast
11:58 PM 48.2 °F - 44.6 °F 87% 30.02 in 10.0 mi SW 4.6 mph - N/A   Overcast